FW2026 Weather Reports


time (UTC)temp
C
wind
direction
speed
KPH
gust
KPH
rain 1hr
cm
rain 24hr
cm
rain mn
cm
humidity
%
barometer
mb
20260506013933 9 0 6.4 14.5 0.08 0.33 0.28 88 1006.9
20260506013431 9 358 8.0 14.5 0.10 0.33 0.28 88 1006.9
20260506013205 9 348 6.4 9.7 0.08 0.33 0.25 88 1007.0
20260506012431 9 358 6.4 16.1 0.10 0.33 0.25 88 1007.0
20260506011931 9 11 8.0 16.1 0.10 0.33 0.25 88 1007.0
20260506011433 9 0 6.4 14.5 0.10 0.33 0.25 88 1007.0
20260506010930 9 20 9.7 14.5 0.10 0.33 0.23 88 1007.0
20260506010432 9 0 4.8 14.5 0.10 0.33 0.23 88 1007.1
20260506005932 9 21 6.4 14.5 0.10 0.23 0.23 88 1007.1
20260506005431 9 0 8.0 19.3 0.10 0.23 0.23 88 1007.1
20260506004933 9 0 9.7 19.3 0.10 0.23 0.23 88 1007.1
20260506004432 9 0 9.7 19.3 0.10 0.23 0.20 88 1007.2
20260506004204 9 351 11.3 19.3 0.10 0.23 0.20 88 1007.2
20260506003704 9 34 9.7 14.5 0.08 0.23 0.18 87 1007.3
20260506002930 9 0 6.4 16.1 0.10 0.23 0.18 88 1007.3
20260506002431 9 338 9.7 16.1 0.08 0.23 0.15 87 1007.3
20260506001931 9 350 8.0 16.1 0.10 0.23 0.15 87 1007.4
20260506001431 9 351 8.0 16.1 0.10 0.23 0.15 87 1007.4
20260506000930 9 347 8.0 16.1 0.08 0.23 0.15 88 1007.5
20260506000433 9 6 6.4 17.7 0.10 0.23 0.15 88 1007.5
20260505235931 9 0 9.7 17.7 0.10 0.15 0.15 87 1007.6
20260505235431 9 357 8.0 11.3 0.08 0.15 0.13 87 1007.6
20260505234929 9 0 4.8 14.5 0.08 0.15 0.13 87 1007.6
20260505234430 9 3 8.0 14.5 0.08 0.15 0.10 87 1007.7
20260505234204 9 0 6.4 14.5 0.08 0.15 0.10 87 1007.7
20260505233430 9 0 8.0 17.7 0.08 0.15 0.10 87 1007.8
20260505232931 9 0 8.0 17.7 0.05 0.15 0.08 87 1007.8
20260505232429 9 25 6.4 17.7 0.05 0.15 0.08 87 1007.8
20260505231928 9 0 8.0 17.7 0.05 0.15 0.05 87 1008.0
20260505231427 9 1 8.0 16.1 0.05 0.15 0.05 87 1007.8
20260505230926 10 0 9.7 16.1 0.05 0.15 0.05 87 1007.7
20260505230425 10 0 8.0 14.5 0.05 0.15 0.05 87 1007.7
20260505225924 10 0 8.0 19.3 0.05 0.10 0.05 87 1007.8
20260505225424 10 348 11.3 19.3 0.05 0.10 0.05 87 1007.9
20260505225155 10 0 9.7 17.7 0.05 0.10 0.05 87 1007.9
20260505224423 10 341 9.7 17.7 0.05 0.10 0.03 87 1007.9
20260505223923 10 23 6.4 24.1 0.05 0.10 0.03 87 1008.0
20260505223420 10 8 8.0 24.1 0.05 0.10 0.03 87 1008.0
20260505222922 10 38 11.3 24.1 0.05 0.10 0.03 87 1007.9
20260505222421 10 7 6.4 19.3 0.05 0.10 0.03 86 1008.0
20260505221921 10 20 11.3 19.3 0.05 0.10 0.03 86 1008.0
20260505221417 10 1 8.0 16.1 0.05 0.10 0.03 86 1008.0
20260505220918 10 0 8.0 16.1 0.05 0.10 0.00 86 1008.1
20260505220418 10 343 8.0 14.5 0.05 0.10 0.00 86 1008.0
20260505215918 10 24 6.4 17.7 0.05 0.05 0.10 86 1008.0
20260505215417 10 4 9.7 17.7 0.05 0.05 0.10 86 1008.0
20260505214920 10 345 6.4 17.7 0.05 0.05 0.08 86 1008.1
20260505214416 10 10 6.4 17.7 0.05 0.05 0.08 85 1008.1
20260505214208 10 18 9.7 16.1 0.05 0.05 0.08 85 1008.2
20260505213419 10 0 6.4 16.1 0.03 0.05 0.05 85 1008.2
20260505212918 10 354 8.0 11.3 0.03 0.05 0.05 85 1008.2
20260505212419 10 347 6.4 14.5 0.05 0.05 0.05 85 1008.2
20260505211915 10 18 6.4 17.7 0.05 0.05 0.05 85 1008.2
20260505211415 10 20 9.7 17.7 0.05 0.05 0.05 85 1008.3
20260505210916 10 0 6.4 19.3 0.03 0.05 0.05 85 1008.3
20260505210417 10 10 8.0 19.3 0.03 0.05 0.05 84 1008.3
20260505210148 10 11 9.7 19.3 0.05 0.03 0.05 84 1008.4
20260505205414 10 27 11.3 19.3 0.05 0.03 0.05 84 1008.4
20260505205147 10 20 9.7 16.1 0.05 0.03 0.05 84 1008.4
20260505204417 10 353 8.0 16.1 0.05 0.03 0.05 84 1008.4
20260505203410 10 1 9.7 16.1 0.05 0.03 0.05 84 1008.5
20260505202909 10 21 4.8 17.7 0.05 0.03 0.03 84 1008.5
20260505202407 10 1 9.7 17.7 0.03 0.03 0.03 83 1008.4
20260505201909 10 59 9.7 14.5 0.03 0.03 0.03 83 1008.5
20260505201406 10 17 6.4 11.3 0.03 0.03 0.03 83 1008.5
20260505200909 10 4 8.0 11.3 0.03 0.03 0.03 83 1008.4
20260505200405 10 17 6.4 11.3 0.03 0.03 0.03 83 1008.3
20260505195905 10 0 4.8 19.3 0.00 0.00 0.00 83 1008.3
20260505195405 10 25 12.9 19.3 0.00 0.00 0.00 83 1008.4
20260505194904 10 16 9.7 16.1 0.00 0.00 0.00 83 1008.3
20260505194405 10 0 8.0 16.1 0.00 0.00 0.00 83 1008.4
20260505193903 10 0 4.8 16.1 0.00 0.00 0.00 83 1008.3
20260505193401 10 17 6.4 17.7 0.00 0.00 0.00 83 1008.3
20260505192903 10 7 8.0 17.7 0.00 0.00 0.00 83 1008.4
20260505192403 10 62 8.0 19.3 0.00 0.00 0.00 83 1008.3
20260505191903 10 7 12.9 20.9 0.00 0.00 0.00 83 1008.3
20260505191402 10 358 12.9 20.9 0.00 0.00 0.00 83 1008.3
20260505190902 10 13 12.9 20.9 0.00 0.03 0.00 82 1008.2
20260505190404 10 17 12.9 20.9 0.00 0.03 0.00 82 1008.2
20260505185903 10 25 12.9 20.9 0.00 0.03 0.00 82 1008.2
20260505184907 10 4 11.3 19.3 0.00 0.03 0.00 82 1008.2
20260505183900 10 4 11.3 19.3 0.00 0.03 0.00 82 1008.2
20260505183400 10 23 9.7 14.5 0.00 0.03 0.00 82 1008.1
20260505182859 10 16 6.4 14.5 0.00 0.03 0.00 82 1008.2
20260505182631 10 21 4.8 16.1 0.00 0.03 0.00 82 1008.1
20260505181858 10 35 6.4 17.7 0.00 0.03 0.00 82 1008.1
20260505181356 10 23 6.4 20.9 0.00 0.03 0.00 82 1008.1
20260505181128 10 0 12.9 22.5 0.00 0.03 0.00 81 1008.1
20260505180356 10 52 11.3 22.5 0.00 0.03 0.00 82 1008.3
20260505175854 10 39 11.3 19.3 0.00 0.03 0.00 82 1008.3
20260505175355 10 20 8.0 24.1 0.00 0.03 0.00 82 1008.3
20260505174855 11 8 14.5 24.1 0.00 0.03 0.00 81 1008.4
20260505174352 11 7 8.0 16.1 0.00 0.03 0.00 82 1008.3
20260505173853 11 41 8.0 16.1 0.00 0.03 0.00 81 1008.2
20260505173351 11 30 11.3 17.7 0.00 0.03 0.00 81 1008.4
20260505172852 11 0 8.0 19.3 0.00 0.05 0.00 81 1008.4
20260505172352 11 7 9.7 19.3 0.00 0.05 0.00 81 1008.4
20260505172127 11 38 9.7 14.5 0.00 0.05 0.00 81 1008.3
20260505171350 11 59 6.4 14.5 0.00 0.13 0.00 81 1008.3
20260505170848 11 23 9.7 16.1 0.00 0.15 0.00 81 1008.3
20260505170348 11 16 9.7 16.1 0.00 0.15 0.00 81 1008.4
20260505165849 11 52 6.4 16.1 0.00 0.15 0.00 82 1008.3
20260505165349 11 20 4.8 11.3 0.00 0.15 0.00 82 1008.4
20260505165120 11 23 4.8 11.3 0.00 0.15 0.00 82 1008.4
20260505164348 11 34 8.0 11.3 0.00 0.15 0.00 82 1008.4
20260505163846 11 37 4.8 17.7 0.00 0.15 0.00 82 1008.4
20260505163349 11 44 4.8 17.7 0.00 0.15 0.00 82 1008.4
20260505162846 11 7 6.4 16.1 0.00 0.15 0.00 81 1008.4
20260505162623 11 0 9.7 16.1 0.00 0.15 0.00 82 1008.2
20260505161845 11 0 8.0 16.1 0.00 0.15 0.00 82 1008.3
20260505161346 11 23 11.3 16.1 0.00 0.18 0.00 82 1008.4
20260505160846 11 3 6.4 16.1 0.00 0.18 0.00 82 1008.3
20260505160345 11 0 11.3 17.7 0.00 0.18 0.00 81 1008.4
20260505153346 11 0 9.7 20.9 0.00 0.23 0.00 81 1008.5
20260505152844 11 351 12.9 20.9 0.00 0.23 0.00 81 1008.7
20260505152346 11 3 9.7 19.3 0.00 0.23 0.00 81 1008.7
20260505151844 11 3 11.3 19.3 0.00 0.23 0.00 81 1008.7
20260505151345 11 7 6.4 19.3 0.00 0.23 0.00 81 1008.8
20260505150845 11 0 9.7 22.5 0.00 0.23 0.00 81 1008.8
20260505150618 11 21 6.4 22.5 0.00 0.23 0.00 81 1008.8
20260505140342 11 4 8.0 16.1 0.00 0.23 0.00 82 1009.0
20260505124836 11 14 11.3 19.3 0.00 0.23 0.00 82 1009.3
20260505124608 11 4 12.9 19.3 0.00 0.23 0.00 82 1009.5
20260505124109 11 11 9.7 19.3 0.00 0.23 0.00 82 1009.5
20260505123337 11 347 11.3 17.7 0.00 0.23 0.00 82 1009.5
20260505122833 11 344 11.3 17.7 0.00 0.23 0.00 82 1009.4
20260505122333 11 23 9.7 19.3 0.00 0.23 0.00 82 1009.5
20260505121833 11 14 12.9 19.3 0.00 0.23 0.00 82 1009.5
20260505121333 11 8 9.7 17.7 0.00 0.23 0.00 82 1009.5
20260505120834 11 41 9.7 17.7 0.00 0.23 0.00 82 1009.5
20260505120334 11 355 11.3 17.7 0.00 0.23 0.00 83 1009.6
20260505115832 11 14 11.3 19.3 0.00 0.23 0.00 83 1009.5
20260505115332 11 6 11.3 19.3 0.00 0.23 0.00 83 1009.6
20260505114831 11 0 9.7 17.7 0.00 0.23 0.00 83 1009.7
20260505114331 11 345 12.9 17.7 0.00 0.23 0.00 84 1009.8
20260505113831 11 11 9.7 19.3 0.00 0.23 0.00 84 1009.7
20260505113331 11 0 11.3 19.3 0.00 0.23 0.00 84 1009.7
20260505112833 11 0 11.3 20.9 0.00 0.23 0.00 85 1009.6
20260505112606 11 357 12.9 20.9 0.00 0.23 0.00 85 1009.7
20260505112106 11 0 12.9 20.9 0.00 0.23 0.00 85 1009.6
20260505111332 11 358 14.5 19.3 0.00 0.23 0.00 86 1009.6
20260505110832 11 4 8.0 17.7 0.00 0.23 0.00 86 1009.7
20260505110331 11 6 11.3 17.7 0.00 0.23 0.00 86 1009.7
20260505101827 11 348 12.9 19.3 0.00 0.23 0.00 87 1009.9
20260505101328 11 350 9.7 20.9 0.00 0.23 0.00 87 1010.0
20260505100828 11 350 11.3 20.9 0.00 0.23 0.00 87 1010.0
20260505100328 11 0 12.9 19.3 0.00 0.23 0.00 87 1009.9
20260505095828 11 0 12.9 19.3 0.00 0.23 0.00 87 1009.9
20260505095327 11 7 14.5 20.9 0.00 0.23 0.00 87 1009.9
20260505094827 11 6 14.5 22.5 0.00 0.23 0.00 87 1009.9
20260505094327 11 10 14.5 22.5 0.00 0.23 0.00 87 1009.9
20260505093827 11 7 11.3 20.9 0.00 0.23 0.00 88 1009.9
20260505093326 11 16 9.7 20.9 0.00 0.23 0.00 88 1009.9
20260505092824 11 0 11.3 20.9 0.00 0.23 0.00 88 1010.0
20260505092322 11 0 14.5 20.9 0.00 0.23 0.00 87 1010.0
20260505091822 11 0 12.9 19.3 0.00 0.23 0.00 87 1010.0
20260505091322 11 20 8.0 17.7 0.00 0.23 0.00 88 1010.0
20260505090823 11 338 9.7 20.9 0.00 0.23 0.00 88 1010.0
20260505090322 11 0 11.3 20.9 0.00 0.23 0.00 88 1009.9
20260505085818 11 355 12.9 19.3 0.00 0.23 0.00 88 1009.9
20260505085318 11 354 12.9 20.9 0.00 0.23 0.00 88 1009.9
20260505084817 11 357 11.3 20.9 0.00 0.23 0.00 88 1009.9
20260505084320 11 21 11.3 19.3 0.00 0.23 0.00 88 1010.0
20260505083819 11 10 9.7 19.3 0.00 0.23 0.00 88 1009.9
20260505083318 11 3 11.3 19.3 0.00 0.23 0.00 88 1009.8
20260505082816 11 0 11.3 19.3 0.00 0.23 0.00 88 1009.9
20260505082317 11 7 9.7 16.1 0.00 0.23 0.00 88 1010.0
20260505082048 11 353 9.7 17.7 0.00 0.23 0.00 88 1010.0
20260505081317 11 354 9.7 17.7 0.00 0.23 0.00 88 1010.0
20260505080815 11 0 6.4 16.1 0.00 0.23 0.00 88 1009.9
20260505080313 11 0 11.3 16.1 0.00 0.23 0.00 88 1009.8
20260505075812 12 357 9.7 16.1 0.00 0.23 0.00 88 1009.9
20260505075316 12 0 9.7 16.1 0.00 0.23 0.00 88 1009.8
20260505074810 12 18 8.0 17.7 0.00 0.23 0.00 88 1010.0
20260505074310 12 0 11.3 17.7 0.00 0.23 0.00 88 1009.9
20260505073812 12 13 11.3 19.3 0.00 0.23 0.00 88 1009.9
20260505073311 12 0 12.9 19.3 0.00 0.23 0.00 88 1009.8
20260505072810 12 0 9.7 16.1 0.00 0.23 0.00 88 1009.9
20260505072312 12 0 11.3 16.1 0.00 0.23 0.00 88 1009.8
20260505071810 12 0 9.7 16.1 0.00 0.23 0.00 88 1009.8
20260505071311 12 0 9.7 16.1 0.00 0.23 0.00 88 1009.7
20260505070807 12 0 9.7 14.5 0.00 0.23 0.00 88 1009.8
20260505070541 12 0 6.4 14.5 0.00 0.23 0.00 88 1009.8
20260505065807 12 52 8.0 11.3 0.00 0.23 0.00 88 1009.8
20260505065309 12 0 6.4 14.5 0.00 0.23 0.00 88 1009.7
20260505065041 12 23 9.7 14.5 0.00 0.23 0.00 88 1009.9
20260505064308 12 18 9.7 14.5 0.00 0.23 0.00 88 1009.9
20260505064040 12 20 6.4 14.5 0.00 0.23 0.00 88 1010.0
20260505063304 12 0 9.7 14.5 0.00 0.23 0.00 88 1010.1
20260505062805 12 1 6.4 14.5 0.00 0.23 0.00 88 1010.0
20260505062304 12 6 9.7 14.5 0.00 0.23 0.00 88 1010.0
20260505061804 12 0 9.7 14.5 0.00 0.23 0.00 88 1010.0
20260505061303 12 0 8.0 11.3 0.00 0.23 0.00 88 1010.0
20260505060802 13 355 6.4 11.3 0.00 0.23 0.00 88 1010.0
20260505060535 13 0 3.2 6.4 0.00 0.23 0.00 88 1010.0
20260505055802 13 10 3.2 6.4 0.00 0.23 0.00 88 1010.0
20260505055304 13 14 4.8 6.4 0.00 0.23 0.00 88 1009.9
20260505054803 13 358 1.6 3.2 0.00 0.23 0.00 88 1009.9
20260505054535 13 18 1.6 4.8 0.00 0.23 0.00 88 1009.9
20260505053802 12 23 3.2 4.8 0.00 0.23 0.00 88 1009.9
20260505053304 13 20 3.2 4.8 0.00 0.23 0.00 88 1009.9
20260505052802 12 16 3.2 4.8 0.00 0.23 0.00 88 1010.0
20260505052304 12 49 3.2 3.2 0.00 0.23 0.00 88 1009.9
20260505051803 12 44 1.6 3.2 0.00 0.23 0.00 88 1010.0
20260505051302 12 42 0.0 3.2 0.00 0.23 0.00 88 1009.9
20260505051035 12 42 1.6 3.2 0.00 0.23 0.00 88 1009.8
20260505050300 12 42 1.6 3.2 0.00 0.23 0.00 88 1009.9
20260505041252 12 87 0.0 0.0 0.00 0.23 0.00 88 1009.9
20260505040245 12 87 0.0 0.0 0.00 0.23 0.00 88 1010.0
20260505035747 12 87 0.0 0.0 0.00 0.23 0.00 88 1009.9
20260505035244 12 87 0.0 1.6 0.00 0.23 0.00 88 1009.9
20260505034744 12 87 0.0 3.2 0.00 0.23 0.00 88 1009.9
20260505034243 12 87 0.0 3.2 0.00 0.23 0.00 87 1009.9
20260505033741 12 87 1.6 1.6 0.00 0.23 0.00 87 1009.8
20260505033241 12 89 0.0 1.6 0.00 0.23 0.00 87 1009.9
20260505032741 12 87 0.0 1.6 0.00 0.23 0.00 87 1009.9
20260505032239 12 87 0.0 3.2 0.00 0.23 0.00 88 1009.9
20260505031741 12 87 1.6 3.2 0.00 0.23 0.00 88 1010.0
20260505031239 12 102 0.0 3.2 0.00 0.23 0.00 88 1010.0
20260505030739 12 104 1.6 3.2 0.00 0.23 0.00 88 1010.0
20260505030237 12 110 0.0 0.0 0.00 0.23 0.00 87 1010.2
20260505025738 12 110 0.0 3.2 0.00 0.23 0.00 88 1010.1
20260505025510 12 110 1.6 3.2 0.00 0.23 0.00 88 1010.1
20260505024735 12 137 0.0 1.6 0.00 0.23 0.00 87 1010.2
20260505024236 12 137 0.0 1.6 0.00 0.23 0.00 87 1010.1
20260505024014 12 137 0.0 1.6 0.00 0.23 0.00 87 1010.2
20260505022733 13 137 0.0 1.6 0.00 0.23 0.00 87 1010.3
20260505022238 13 138 0.0 3.2 0.00 0.23 0.00 87 1010.4
20260505021733 13 138 0.0 3.2 0.00 0.23 0.00 87 1010.4
20260505021244 13 138 1.6 3.2 0.00 0.23 0.00 87 1010.3
20260505020734 13 141 1.6 3.2 0.00 0.23 0.00 87 1010.4
20260505020244 13 118 0.0 0.0 0.00 0.23 0.00 87 1010.3
20260505015732 13 103 0.0 0.0 0.00 0.23 0.00 87 1010.3
20260505015236 13 125 0.0 0.0 0.00 0.23 0.00 87 1010.3
20260505015010 13 125 0.0 0.0 0.00 0.23 0.00 87 1010.4